Terminal Aerodrome Forecast
Issued by NWS

Home | Current Version | Previous Version | Text Only | Print | Product List | Glossary On
Versions: 1 2 3 4 5 6 7 8 9 10 11 12 13 14 15 16 17 18 19 20
000
FTUS42 KMHX 201700
TAFISO
TAF
KISO 201725Z 2018/2118 03015G25KT P6SM -SHRA OVC025
      TEMPO 2018/2021 2SM -RA BR OVC009
     FM210200 01008G18KT P6SM OVC050
     FM210600 01012G18KT P6SM SCT250
      AMD LTD TO CLD VIS AND WIND=

USA.gov is the U.S. government's official web portal to all federal, state and local government web resources and services.